When you browse on this site, cookies collect data to enhance your experience and personalize the content and advertising you see.
Visit our Privacy Policy to learn more. By continuing to use the site, you agree to this use of cookies and data.

Previsão horária em Gavrilovo

Hoje, 2 Julho, Quinta-feira

Tempo Temperatura Precipitação Vento Pressão Humidade
00:00 +13°C° 0 mm 3 m/s 747 mmHg 92%
01:00 +14°C° 0 mm 2 m/s 747 mmHg 94%
02:00 +13°C° 0 mm 2 m/s 747 mmHg 97%
03:00 +14°C° 0 mm 2 m/s 747 mmHg 94%
04:00 +15°C° 0 mm 2 m/s 747 mmHg 91%
05:00 +15°C° 0 mm 2 m/s 747 mmHg 88%
06:00 +17°C° 0 mm 2 m/s 748 mmHg 83%
07:00 +18°C° 0 mm 2 m/s 748 mmHg 77%
08:00 +19°C° 0 mm 3 m/s 748 mmHg 72%
09:00 +21°C° 0 mm 3 m/s 748 mmHg 65%
10:00 +22°C° 0 mm 3 m/s 748 mmHg 58%
11:00 +24°C° 0 mm 3 m/s 747 mmHg 52%
12:00 +25°C° 0.1 mm 3 m/s 747 mmHg 52%
13:00 +25°C° 0.1 mm 3 m/s 747 mmHg 52%
14:00 +26°C° 0.1 mm 2 m/s 747 mmHg 53%
15:00 +26°C° 0.2 mm 2 m/s 747 mmHg 58%
16:00 +25°C° 0.2 mm 2 m/s 747 mmHg 62%
17:00 +25°C° 0.2 mm 2 m/s 746 mmHg 67%
18:00 +24°C° 0.4 mm 2 m/s 746 mmHg 75%
19:00 +21°C° 0.4 mm 2 m/s 746 mmHg 83%
20:00 +20°C° 0.4 mm 2 m/s 746 mmHg 91%
21:00 +19°C° 0.2 mm 2 m/s 747 mmHg 93%
22:00 +18°C° 0.2 mm 2 m/s 747 mmHg 95%
23:00 +17°C° 0.2 mm 2 m/s 747 mmHg 97%

Amanhã, 3 Julho, Sexta-feira

Tempo Temperatura Precipitação Vento Pressão Humidade
00:00 +16°C° 0 mm 2 m/s 748 mmHg 97%
01:00 +15°C° 0 mm 2 m/s 748 mmHg 97%
02:00 +15°C° 0 mm 2 m/s 749 mmHg 97%
03:00 +14°C° 0 mm 2 m/s 749 mmHg 97%
04:00 +14°C° 0 mm 2 m/s 749 mmHg 97%
05:00 +14°C° 0 mm 2 m/s 749 mmHg 97%
06:00 +15°C° 0 mm 2 m/s 750 mmHg 94%
07:00 +16°C° 0 mm 2 m/s 750 mmHg 90%
08:00 +17°C° 0 mm 2 m/s 750 mmHg 86%
09:00 +19°C° 0 mm 2 m/s 750 mmHg 74%
10:00 +21°C° 0 mm 2 m/s 751 mmHg 63%
11:00 +24°C° 0 mm 2 m/s 751 mmHg 51%
12:00 +24°C° 0 mm 2 m/s 750 mmHg 50%
13:00 +25°C° 0 mm 2 m/s 750 mmHg 48%
14:00 +25°C° 0 mm 2 m/s 750 mmHg 47%
15:00 +24°C° 0 mm 2 m/s 750 mmHg 54%
16:00 +21°C° 0 mm 2 m/s 750 mmHg 61%
17:00 +20°C° 0 mm 2 m/s 750 mmHg 68%
18:00 +19°C° 0 mm 2 m/s 750 mmHg 72%
19:00 +18°C° 0 mm 2 m/s 750 mmHg 76%
20:00 +17°C° 0 mm 2 m/s 750 mmHg 80%
21:00 +16°C° 0 mm 2 m/s 750 mmHg 82%
22:00 +16°C° 0 mm 1 m/s 750 mmHg 85%
23:00 +15°C° 0 mm 1 m/s 750 mmHg 87%

Depois de amanhã, 4 Julho, Sábado

Tempo Temperatura Precipitação Vento Pressão Humidade
00:00 +14°C° 0 mm 1 m/s 750 mmHg 90%
01:00 +14°C° 0 mm 1 m/s 750 mmHg 93%
02:00 +13°C° 0 mm 1 m/s 750 mmHg 96%
03:00 +14°C° 0 mm 1 m/s 750 mmHg 95%
04:00 +14°C° 0 mm 1 m/s 750 mmHg 94%
05:00 +15°C° 0 mm 1 m/s 750 mmHg 92%
06:00 +16°C° 0 mm 1 m/s 751 mmHg 88%
07:00 +17°C° 0 mm 2 m/s 751 mmHg 83%
08:00 +19°C° 0 mm 2 m/s 751 mmHg 78%
09:00 +20°C° 0.1 mm 2 m/s 751 mmHg 70%
10:00 +21°C° 0.1 mm 3 m/s 751 mmHg 62%
11:00 +22°C° 0.1 mm 3 m/s 751 mmHg 54%
12:00 +23°C° 0 mm 4 m/s 751 mmHg 50%
13:00 +23°C° 0 mm 4 m/s 751 mmHg 47%
14:00 +25°C° 0 mm 4 m/s 751 mmHg 44%
15:00 +25°C° 0 mm 4 m/s 751 mmHg 46%
16:00 +25°C° 0 mm 4 m/s 751 mmHg 49%
17:00 +25°C° 0 mm 4 m/s 751 mmHg 51%
18:00 +22°C° 0 mm 3 m/s 751 mmHg 59%
19:00 +21°C° 0 mm 3 m/s 751 mmHg 67%
20:00 +20°C° 0 mm 2 m/s 751 mmHg 75%
21:00 +19°C° 0 mm 2 m/s 751 mmHg 80%
22:00 +18°C° 0 mm 2 m/s 751 mmHg 84%
23:00 +17°C° 0 mm 3 m/s 752 mmHg 89%

5 Julho, Domingo

Tempo Temperatura Precipitação Vento Pressão Humidade
00:00 +16°C° 0 mm 3 m/s 752 mmHg 91%
01:00 +16°C° 0 mm 2 m/s 752 mmHg 94%
02:00 +15°C° 0 mm 2 m/s 752 mmHg 96%
03:00 +16°C° 0 mm 2 m/s 752 mmHg 94%
04:00 +16°C° 0 mm 2 m/s 752 mmHg 93%
05:00 +16°C° 0 mm 2 m/s 752 mmHg 91%
06:00 +17°C° 0 mm 3 m/s 752 mmHg 85%
07:00 +19°C° 0 mm 3 m/s 752 mmHg 79%
08:00 +20°C° 0 mm 3 m/s 752 mmHg 72%
09:00 +20°C° 0 mm 3 m/s 752 mmHg 72%
10:00 +20°C° 0 mm 3 m/s 752 mmHg 73%
11:00 +20°C° 0 mm 3 m/s 752 mmHg 73%
12:00 +20°C° 0.2 mm 3 m/s 752 mmHg 79%
13:00 +19°C° 0.2 mm 3 m/s 751 mmHg 84%
14:00 +18°C° 0.2 mm 3 m/s 751 mmHg 90%
15:00 +20°C° 0 mm 3 m/s 751 mmHg 84%
16:00 +21°C° 0 mm 3 m/s 750 mmHg 77%
17:00 +23°C° 0 mm 4 m/s 750 mmHg 70%
18:00 +22°C° 0.3 mm 3 m/s 750 mmHg 78%
19:00 +21°C° 0.3 mm 3 m/s 750 mmHg 85%
20:00 +20°C° 0.3 mm 3 m/s 749 mmHg 93%
21:00 +19°C° 0.1 mm 3 m/s 749 mmHg 94%
22:00 +19°C° 0.1 mm 3 m/s 749 mmHg 95%
23:00 +18°C° 0.1 mm 3 m/s 749 mmHg 96%

6 Julho, Segunda-feira

Tempo Temperatura Precipitação Vento Pressão Humidade
00:00 +18°C° 0 mm 3 m/s 748 mmHg 96%
01:00 +19°C° 0 mm 4 m/s 748 mmHg 95%
02:00 +19°C° 0 mm 4 m/s 748 mmHg 94%
03:00 +19°C° 0 mm 4 m/s 747 mmHg 93%
04:00 +19°C° 0 mm 5 m/s 747 mmHg 93%
05:00 +19°C° 0 mm 5 m/s 747 mmHg 92%
06:00 +19°C° 0.2 mm 5 m/s 747 mmHg 91%
07:00 +20°C° 0.2 mm 5 m/s 747 mmHg 91%
08:00 +20°C° 0.2 mm 5 m/s 747 mmHg 90%
09:00 +21°C° 0.3 mm 5 m/s 747 mmHg 87%
10:00 +21°C° 0.3 mm 5 m/s 747 mmHg 85%
11:00 +22°C° 0.3 mm 6 m/s 747 mmHg 83%
12:00 +22°C° 0.4 mm 5 m/s 747 mmHg 80%
13:00 +23°C° 0.4 mm 5 m/s 747 mmHg 78%
14:00 +23°C° 0.4 mm 5 m/s 747 mmHg 75%
15:00 +25°C° 0.2 mm 5 m/s 747 mmHg 70%
16:00 +25°C° 0.2 mm 5 m/s 747 mmHg 65%
17:00 +26°C° 0.2 mm 5 m/s 747 mmHg 60%
18:00 +25°C° 0 mm 4 m/s 747 mmHg 66%
19:00 +22°C° 0 mm 3 m/s 748 mmHg 72%
20:00 +21°C° 0 mm 2 m/s 748 mmHg 78%
21:00 +20°C° 0 mm 2 m/s 748 mmHg 81%
22:00 +20°C° 0 mm 2 m/s 748 mmHg 85%
23:00 +19°C° 0 mm 2 m/s 749 mmHg 88%

7 Julho, Terça-feira

Tempo Temperatura Precipitação Vento Pressão Humidade
00:00 +18°C° 0 mm 2 m/s 749 mmHg 90%
01:00 +18°C° 0 mm 2 m/s 749 mmHg 93%
02:00 +17°C° 0 mm 2 m/s 749 mmHg 95%
03:00 +18°C° 0 mm 2 m/s 749 mmHg 93%
04:00 +18°C° 0 mm 2 m/s 749 mmHg 91%
05:00 +20°C° 0 mm 1 m/s 749 mmHg 90%
06:00 +20°C° 0.1 mm 1 m/s 749 mmHg 88%
07:00 +21°C° 0.1 mm 1 m/s 749 mmHg 87%
08:00 +22°C° 0.1 mm 1 m/s 748 mmHg 85%
09:00 +23°C° 0.1 mm 1 m/s 749 mmHg 78%
10:00 +24°C° 0.1 mm 2 m/s 749 mmHg 70%
11:00 +26°C° 0.1 mm 2 m/s 749 mmHg 62%
12:00 +25°C° 0.4 mm 2 m/s 749 mmHg 62%
13:00 +25°C° 0.4 mm 2 m/s 748 mmHg 63%
14:00 +25°C° 0.4 mm 2 m/s 748 mmHg 63%
15:00 +24°C° 0.2 mm 2 m/s 748 mmHg 67%
16:00 +21°C° 0.2 mm 2 m/s 749 mmHg 71%
17:00 +20°C° 0.2 mm 2 m/s 749 mmHg 75%
18:00 +19°C° 0 mm 2 m/s 749 mmHg 77%
19:00 +18°C° 0 mm 2 m/s 749 mmHg 79%
20:00 +17°C° 0 mm 2 m/s 749 mmHg 81%
21:00 +16°C° 0.1 mm 2 m/s 749 mmHg 85%
22:00 +16°C° 0.1 mm 2 m/s 749 mmHg 88%
23:00 +15°C° 0.1 mm 2 m/s 749 mmHg 91%
Mostrar mais